Regional Weather Roundup
Issued by NWS

Home | Current Version | Previous Version | Text Only | Print | Product List | Glossary Off
Versions: 1 2 3 4 5 6 7 8 9 10 11 12 13 14 15 16 17 18 19 20 21 22 23 24 25 26 27 28 29 30 31 32 33 34 35 36 37 38 39 40 41 42 43 44 45 46 47 48 49 50

000
ASUS43 KOAX 280610
RWRNE

WEATHER ROUNDUP FOR NEBRASKA
NATIONAL WEATHER SERVICE OMAHA NE
100 AM CDT SAT MAY 28 2016

NOTES: SATELLITE DATA IS BEING USED TO AUGMENT CLOUD COVER ABOVE
       12000 FEET.
       "FAIR" INDICATES FEW OR NO CLOUDS BELOW 12,000 FEET WITH NO
       SIGNIFICANT WEATHER AND/OR OBSTRUCTIONS TO VISIBILITY.

  * THESE STATIONS DO NOT REPORT WEATHER SUCH AS RAIN...SNOW OR FOG.

NEZ001>004-019>022-054>056-280700-
NEBRASKA PANHANDLE

CITY           SKY/WX    TMP DP  RH WIND       PRES   REMARKS
SCOTTSBLUFF    CLEAR     47  43  86 N6        29.90F
6HR MIN TEMP:  46; 6HR MAX TEMP:  60;

ALLIANCE       PTCLDY    43  43 100 W3        29.89S
6HR MIN TEMP:  41; 6HR MAX TEMP:  60;

CHADRON        PTCLDY    46  43  89 W6        29.88S
6HR MIN TEMP:  46; 6HR MAX TEMP:  63;

KIMBALL        CLOUDY    43  42  96 CALM      29.93S
SIDNEY         CLEAR     45  42  89 NW9       29.92R
6HR MIN TEMP:  44; 6HR MAX TEMP:  56; 6HR PCP:  0.02;

$$

NEZ057>060-069>072-079>082-280700-
SOUTHWEST NEBRASKA

CITY           SKY/WX    TMP DP  RH WIND       PRES   REMARKS
NORTH PLATTE   CLOUDY    55  52  89 N7        29.81R
6HR MIN TEMP:  52; 6HR MAX TEMP:  63; 6HR PCP:  0.03;

IMPERIAL       PTCLDY    53  48  83 NW14      29.84R
6HR MIN TEMP:  50; 6HR MAX TEMP:  55; 6HR PCP:  0.03;

LEXINGTON      RAIN      58  55  92 NE23G30   29.78S
MCCOOK         MOCLDY    54  50  86 W6        29.79R
6HR MIN TEMP:  52; 6HR MAX TEMP:  63; 6HR PCP:  0.02;

OGALLALA       CLOUDY    52  49  87 NW9       29.85R
$$

NEZ005>010-023>029-035>040-094-280700-
NORTH CENTRAL NEBRASKA

CITY           SKY/WX    TMP DP  RH WIND       PRES   REMARKS
VALENTINE      CLOUDY    54  50  86 NW6       29.83S
6HR MIN TEMP:  54; 6HR MAX TEMP:  67;

AINSWORTH      CLOUDY    56  52  86 N6        29.80F
BROKEN BOW     LGT RAIN  56  54  93 W5        29.80R
6HR MIN TEMP:  56; 6HR MAX TEMP:  69; 6HR PCP:  0.77;

O`NEILL        LGT RAIN  60  57  92 SE5       29.77R
ORD            LGT RAIN  58  56  93 S9        29.75F
6HR MIN TEMP:  56; 6HR MAX TEMP:  72; 6HR PCP:  0.71;

THEDFORD       CLOUDY    57  51  82 N7        29.83S
$$

NEZ041-046>049-061>064-073>077-083>087-280700-
SOUTH CENTRAL NEBRASKA

CITY           SKY/WX    TMP DP  RH WIND       PRES   REMARKS
GRAND ISLAND   CLOUDY    57  55  93 NW6       29.75R
6HR MIN TEMP:  57; 6HR MAX TEMP:  64; 6HR PCP:  0.22;

AURORA         CLOUDY    58  56  94 N3        29.73R
HASTINGS       PTCLDY    57  54  89 SW6       29.77R
6HR MIN TEMP:  57; 6HR MAX TEMP:  66; 6HR PCP:  0.10;

HEBRON         CLOUDY    58  56  92 S12       29.73S
HOLDREGE       LGT RAIN  59  56  92 NE8       29.78R
KEARNEY *      CLOUDY    57  54  88 N5        29.79R
YORK           MOCLDY    57  54  88 NE12      29.71F
$$

NEZ011>018-030>034-042>045-280700-
NORTHEAST NEBRASKA

CITY           SKY/WX    TMP DP  RH WIND       PRES   REMARKS
NORFOLK        LGT RAIN  59  56  89 N9        29.68F
6HR MIN TEMP:  57; 6HR MAX TEMP:  72; 6HR PCP:  1.57;

ALBION         DRIZZLE   57  54  88 NW6       29.74S
BLAIR          CLOUDY    60  58  94 CALM      29.70F
FREMONT        CLOUDY    58  57  96 CALM      29.71F
TEKAMAH        LGT RAIN  63  60  90 N7        29.69F
6HR MIN TEMP:  61; 6HR MAX TEMP:  78; 6HR PCP:  0.19;

WAYNE          LGT RAIN  61  59  94 N7        29.73F
$$

NEZ050>053-065>068-078-088>093-280700-
SOUTHEAST NEBRASKA

CITY           SKY/WX    TMP DP  RH WIND       PRES   REMARKS
LINCOLN        MOCLDY    61  56  83 NE3       29.72F
6HR MIN TEMP:  60; 6HR MAX TEMP:  73; 6HR PCP:  1.20;

OMAHA EPPLEY   CLOUDY    63  59  87 N3        29.71F
6HR MIN TEMP:  63; 6HR MAX TEMP:  77; 6HR PCP:  0.08;

BEATRICE       CLOUDY    58  56  94 E3        29.73F
FALLS CITY     LGT RAIN  61  60  97 VRB3      29.76S
6HR MIN TEMP:  61; 6HR MAX TEMP:  73; 6HR PCP:  0.18;

NEBRASKA CITY  CLOUDY    60  60 100 E5        29.72F
PLATTSMOUTH    CLOUDY    63  62  97 CALM      29.72F
$$

NEZ044-045-051>053-067-280700-
OMAHA AREA

CITY           SKY/WX    TMP DP  RH WIND       PRES   REMARKS
OMAHA EPPLEY   CLOUDY    63  59  87 N3        29.71F
6HR MIN TEMP:  63; 6HR MAX TEMP:  77; 6HR PCP:  0.08;

BLAIR          CLOUDY    60  58  94 CALM      29.70F
FREMONT        CLOUDY    58  57  96 CALM      29.71F
MILLARD        MOCLDY    62  59  90 N3        29.71F
OFFUTT AFB     CLOUDY    61  61 100 VRB1      29.71R
PLATTSMOUTH    CLOUDY    63  62  97 CALM      29.72F
WAHOO          CLOUDY    60  57  90 N6        29.70F
$$




USA.gov is the U.S. government's official web portal to all federal, state and local government web resources and services.